Weather History for KSUU - February, 2013

Change the Weather History Date:

Wednesday, February 20, 2013

  Actual Average Record
Temperature  
Mean Temperature 46 °F -  
Max Temperature 61 °F 58 °F 68 °F (2002)
Min Temperature 32 °F 41 °F 28 °F (2006)
Degree Days  
Heating Degree Days 18    
Moisture  
Dew Point 34 °F    
Average Humidity 71    
Maximum Humidity 99    
Minimum Humidity 28    
Precipitation  
Precipitation 0.00 in - - ()
Sea Level Pressure  
Sea Level Pressure 29.95 in    
Wind  
Wind Speed 7 mph (WSW)    
Max Wind Speed 15 mph    
Max Gust Speed 21 mph    
Visibility 10 miles    
Events      
Averages and records for this station are not official NWS values.
T = Trace of Precipitation, MM = Missing Value Source: NWS Daily Summary

Daily Weather History Graph

Daily Weather History Graph

Search for Another Location

Airport or City:

Trip Planner

Search our weather history database for the weather conditions in past years. The results will help you decide how hot, cold, wet, or windy it might be!

Date:

Astronomy

Feb. 20, 2013 Rise Set
Actual Time 6:51 AM PST 5:52 PM PST
Civil Twilight 6:24 AM PST 6:18 PM PST
Nautical Twilight 5:53 AM PST 6:49 PM PST
Astronomical Twilight 5:23 AM PST 7:20 PM PST
Moon 1:20 PM PST (2/20) 3:13 AM PST (2/20)
Length of Visible Light 11h 54m
Length of Day
11h 00m
Waxing Gibbous, 77% of the Moon is Illuminated
Feb 20
Waxing Gibbous
Feb 25
Full
Mar 4
Last Quarter
Mar 11
New
Mar 19
First Quarter

Hourly Weather History & Observations

Time (PST) Temp. Windchill Dew Point Humidity Pressure Visibility Wind Dir Wind Speed Gust Speed Precip Events Conditions
12:58 AM 35.6 °F 29.9 °F 35.4 °F 99% 29.84 in 10.0 mi West 6.9 mph - N/A   Clear
1:58 AM 32.9 °F 27.5 °F 32.5 °F 99% 29.84 in 10.0 mi West 5.8 mph - N/A   Clear
2:58 AM 33.4 °F 26.6 °F 33.1 °F 99% 29.87 in 10.0 mi West 8.1 mph - N/A   Clear
3:58 AM 33.6 °F 25.6 °F 33.3 °F 99% 29.87 in 10.0 mi WSW 10.4 mph - N/A   Clear
4:58 AM 33.8 °F 26.4 °F 33.4 °F 99% 29.89 in 10.0 mi WSW 9.2 mph - N/A   Clear
5:58 AM 33.8 °F 27.0 °F 33.4 °F 99% 29.91 in 10.0 mi WSW 8.1 mph - N/A   Clear
6:58 AM 34.7 °F - 33.6 °F 96% 29.92 in 10.0 mi Variable 1.2 mph - N/A   Clear
7:58 AM 37.9 °F 33.5 °F 36.1 °F 93% 29.96 in 10.0 mi WSW 5.8 mph - N/A   Clear
8:58 AM 51.1 °F - 35.4 °F 55% 29.95 in 10.0 mi North 10.4 mph - N/A   Clear
9:49 AM 53.6 °F - 32.0 °F 44% 29.95 in 10.0 mi NW 11.5 mph 20.7 mph N/A   Clear
9:58 AM 54.5 °F - 32.4 °F 43% 29.95 in 10.0 mi North 12.7 mph 19.6 mph N/A   Clear
10:58 AM 56.3 °F - 33.3 °F 42% 29.98 in 10.0 mi NNW 15.0 mph 19.6 mph N/A   Clear
11:58 AM 58.3 °F - 33.3 °F 39% 29.98 in 10.0 mi North 10.4 mph - N/A   Clear
12:58 PM 60.3 °F - 29.5 °F 31% 29.97 in 10.0 mi Variable 4.6 mph - N/A   Clear
1:58 PM 61.7 °F - 29.7 °F 30% 29.96 in 10.0 mi SW 5.8 mph - N/A   Clear
2:58 PM 61.3 °F - 27.9 °F 28% 29.96 in 10.0 mi West 8.1 mph - N/A   Partly Cloudy
3:58 PM 61.3 °F - 28.2 °F 29% 29.96 in 10.0 mi Variable 5.8 mph - N/A   Clear
4:58 PM 58.5 °F - 33.1 °F 38% 29.97 in 10.0 mi ESE 3.5 mph - N/A   Clear
5:58 PM 56.3 °F - 28.2 °F 34% 29.99 in 10.0 mi Calm Calm - N/A   Clear
6:58 PM 47.5 °F - 41.5 °F 80% 30.00 in 10.0 mi SW 4.6 mph - N/A   Clear
7:58 PM 45.3 °F 42.3 °F 42.8 °F 91% 30.02 in 10.0 mi SSW 5.8 mph - N/A   Clear
8:58 PM 42.1 °F 37.1 °F 41.9 °F 99% 30.02 in 10.0 mi SW 8.1 mph - N/A   Clear
9:58 PM 40.1 °F 36.9 °F 39.7 °F 99% 30.04 in 10.0 mi South 4.6 mph - N/A   Clear
10:58 PM 39.4 °F 33.2 °F 39.2 °F 99% 30.03 in 10.0 mi WSW 9.2 mph - N/A   Clear
11:58 PM 40.3 °F 34.9 °F 39.9 °F 99% 30.03 in 10.0 mi SW 8.1 mph - N/A   Clear